Showing default

OTTER PUP 2, 64537

Orbit data source: Space-Track

OTTER PUP 2, 64537 is a payload satellite owned by Starfish Space (US) in SSO that was launched on Mon, 23 Jun 2025 UTC via an FALCON 9 launch vehicle from the Air Force Western Test Range (AFWTR). Payload-class satellites include a variety of spacecraft equipped with specific instruments for various scientific and technological missions. These include communications satellites like Starlink; space stations such as the ISS; scientific satellites like the Hubble; Earth observation satellites from companies like Planet Labs, Umbra, and HawkEye 360; GPS; miniature CubeSats for education and research; and military/defense satellites.

Loading next visibility...
Identifier
64537, 2025-135K
Orbit
SSO
Country
Flag of USUS
Related business
Manufacturer
Starfish Space
Mission
Operational Commercial Technology
Bus & Motor
OTTER, EP
Mass
40 kg wet, 39 kg dry
Launch date (UTC)
2025-06-23 (7 months ago)
Launch vehicle
FALCON 9
Launch site
Air Force Western Test Range (AFWTR)
Object type
Payload
Rocket body
Debris
Shape & HBR
Box + 2 Pan, 0.6 m
Radar Cross Section
0.519 m², Medium (>0.1 m² and < 1m²)

Expand to show TLE details & history
Last TLE update: 2 days ago

TLE from 2 days ago
0 OTTER PUP 2
1 64537U 25135K   26034.74728892  .00007089  00000-0  33219-3 0  9998
2 64537  97.4585 151.1099 0001259 334.6237  25.4936 15.20002783 34572
Epoch: 2026-02-03T17:56Z
TLE epoch observation values (Epoch: 2026-02-03T17:56:05.762Z)
Latitude
-0.00003°
Longitude
108.16211°
Altitude
508.139 km
Speed
7.61 km/s
True Right ascension
10h 04m 26s
True Declination
0° 00' 00"
Sunlit
Object was in full shadow at epoch
Visualization orbit readout
Latitude
Unknown
Longitude
Unknown
Altitude
Unknown
Speed
Unknown
Apparent Right ascension
Unknown
Apparent Declination
Unknown
Sunlit
N/A
Visualization observer readout
Local Sidereal Time
09:13:51
Azimuth
Unknown
Elevation
Unknown
Doppler factor
Unknown
Orbital elements
Apogee altitude
503.667 km
Perigee altitude
501.934 km
Semi-major axis
6,880.937 km
Eccentricity
0.00013
Inclination
97.4585°
RAAN
151.1099°
Arg. of periapsis
334.6237°
True anomaly
25.49981°
Mean anomaly
25.4936°
Eccentric anomaly
25.49671°
Mean motion
3.80252 °/min
Orbital period
94.67 mins
BSTAR
0.00033219
Loading maneuver chart data...
Computing Atmospheric mass density...
Loading historical data...
Loading historical data...
Loading historical data...
Loading historical data...
Loading historical data...
Loading historical data...
Loading historical data...

Documentation

Showing up to 5 results
|